Canton, GA

8:54 PM EDT on March 27, 2017 (GMT -0400)
Canton

Weather History for KCNI - January, 2012

Change the Weather History Date:

Wednesday, January 4, 2012

  Actual Average (KMGE) Record (KMGE)
Temperature  
Mean Temperature 34 °F -  
Max Temperature 50 °F 50 °F 73 °F (2004)
Min Temperature 17 °F 33 °F 15 °F (1999)
Degree Days  
Heating Degree Days 32    
Moisture  
Dew Point 17 °F    
Average Humidity 51    
Maximum Humidity 93    
Minimum Humidity 28    
Precipitation  
Precipitation 0.00 in - - ()
Sea Level Pressure  
Sea Level Pressure 30.27 in    
Wind  
Wind Speed 1 mph ()    
Max Wind Speed 8 mph    
Max Gust Speed 18 mph    
Visibility 10.0 miles    
Events      
Averages and records for this station are not official NWS values.
T = Trace of Precipitation, MM = Missing Value Source: Averaged Metar Reports

Daily Weather History Graph

Daily Weather History Graph

Search for Another Location

Airport or City:

Trip Planner

Search our weather history database for the weather conditions in past years. The results will help you decide how hot, cold, wet, or windy it might be!

Date:

Astronomy

Jan. 04, 2012 Rise Set
Actual Time 7:44 AM EST 5:40 PM EST
Civil Twilight 7:16 AM EST 6:08 PM EST
Nautical Twilight 6:45 AM EST 6:39 PM EST
Astronomical Twilight 6:14 AM EST 7:10 PM EST
Moon 2:01 PM EST (1/4) 3:33 AM EST (1/4)
Length of Visible Light 10h 51m
Length of Day
9h 56m
Waxing Gibbous, 80% of the Moon is Illuminated
Jan 4
Waxing Gibbous
Jan 9
Full
Jan 16
Last Quarter
Jan 23
New
Jan 30
First Quarter

Hourly Weather History & Observations

Time (EST) Temp. Windchill Dew Point Humidity Pressure Visibility Wind Dir Wind Speed Gust Speed Precip Events Conditions
12:15 AM 26.6 °F - 14.0 °F 59% 30.34 in 10.0 mi Calm Calm - N/A   Clear
12:35 AM 26.6 °F - 14.0 °F 59% 30.34 in 10.0 mi Calm Calm - N/A   Clear
12:55 AM 26.6 °F - 14.0 °F 59% 30.34 in 10.0 mi Calm Calm - N/A   Clear
1:35 AM 23.0 °F - 14.0 °F 68% 30.32 in 10.0 mi Calm Calm - N/A   Clear
1:55 AM 24.8 °F - 14.0 °F 64% 30.32 in 10.0 mi Calm Calm - N/A   Clear
2:15 AM 24.8 °F - 12.2 °F 59% 30.32 in 10.0 mi Calm Calm - N/A   Clear
2:35 AM 23.0 °F - 14.0 °F 68% 30.32 in 10.0 mi Calm Calm - N/A   Clear
3:15 AM 23.0 °F - 14.0 °F 68% 30.33 in 10.0 mi Calm Calm - N/A   Clear
3:35 AM 23.0 °F - 14.0 °F 68% 30.33 in 10.0 mi Calm Calm - N/A   Clear
3:55 AM 23.0 °F - 14.0 °F 68% 30.33 in 10.0 mi Calm Calm - N/A   Clear
4:15 AM 23.0 °F - 14.0 °F 68% 30.34 in 10.0 mi Calm Calm - N/A   Clear
4:35 AM 23.0 °F - 14.0 °F 68% 30.34 in 10.0 mi Calm Calm - N/A   Clear
4:55 AM 23.0 °F 18.4 °F 14.0 °F 68% 30.34 in 10.0 mi West 3.5 mph - N/A   Clear
5:15 AM 23.0 °F 18.4 °F 14.0 °F 68% 30.35 in 10.0 mi WNW 3.5 mph - N/A   Clear
5:35 AM 21.2 °F 14.9 °F 14.0 °F 74% 30.35 in 10.0 mi NW 4.6 mph - N/A   Clear
6:15 AM 21.2 °F 14.9 °F 15.8 °F 80% 30.35 in 10.0 mi NW 4.6 mph - N/A   Clear
6:35 AM 17.6 °F 10.7 °F 15.8 °F 93% 30.36 in 10.0 mi NW 4.6 mph - N/A   Clear
6:55 AM 23.0 °F - 14.0 °F 68% 30.35 in 10.0 mi Calm Calm - N/A   Clear
7:15 AM 21.2 °F - 14.0 °F 74% 30.35 in 10.0 mi Calm Calm - N/A   Clear
7:35 AM 21.2 °F - 14.0 °F 74% 30.36 in 10.0 mi Calm Calm - N/A   Clear
7:55 AM 23.0 °F 18.4 °F 14.0 °F 68% 30.36 in 10.0 mi WNW 3.5 mph - N/A   Clear
8:35 AM 26.6 °F - 14.0 °F 59% 30.36 in 10.0 mi Calm Calm - N/A   Clear
8:55 AM 26.6 °F - 14.0 °F 59% 30.36 in 10.0 mi Calm Calm - N/A   Clear
9:15 AM 28.4 °F - 14.0 °F 55% 30.36 in 10.0 mi Calm Calm - N/A   Clear
9:35 AM 30.2 °F - 14.0 °F 51% 30.35 in 10.0 mi Calm Calm - N/A   Clear
9:55 AM 32.0 °F - 14.0 °F 48% 30.35 in 10.0 mi Calm Calm - N/A   Clear
10:15 AM 32.0 °F - 19.4 °F 60% 30.35 in 10.0 mi Calm Calm - N/A   Clear
10:35 AM 33.8 °F - 17.6 °F 52% 30.35 in 10.0 mi Calm Calm - N/A   Clear
10:55 AM 35.6 °F - 19.4 °F 52% 30.33 in 10.0 mi Calm Calm - N/A   Clear
11:15 AM 39.2 °F 35.9 °F 15.8 °F 39% 30.33 in 10.0 mi WSW 4.6 mph - N/A   Clear
11:35 AM 41.0 °F - 17.6 °F 39% 30.31 in 10.0 mi Calm Calm - N/A   Clear
11:55 AM 41.0 °F - 15.8 °F 36% 30.30 in 10.0 mi Calm Calm - N/A   Clear
12:15 PM 42.8 °F 41.1 °F 14.0 °F 31% 30.28 in 10.0 mi SSW 3.5 mph - N/A   Clear
12:35 PM 42.8 °F - 15.8 °F 34% 30.27 in 10.0 mi Calm Calm - N/A   Clear
12:55 PM 46.4 °F 42.9 °F 15.8 °F 29% 30.26 in 10.0 mi West 6.9 mph - N/A   Clear
1:15 PM 46.4 °F 43.5 °F 15.8 °F 29% 30.25 in 10.0 mi SW 5.8 mph - N/A   Clear
1:35 PM 46.4 °F 42.4 °F 17.6 °F 32% 30.23 in 10.0 mi WSW 8.1 mph - N/A   Clear
1:55 PM 46.4 °F 43.5 °F 15.8 °F 29% 30.23 in 10.0 mi WNW 5.8 mph - N/A   Clear
2:15 PM 48.2 °F - 17.6 °F 30% 30.21 in 10.0 mi West 8.1 mph - N/A   Clear
2:55 PM 50.0 °F - 17.6 °F 28% 30.20 in 10.0 mi SW 8.1 mph 18.4 mph N/A   Clear
3:15 PM 48.2 °F - 19.4 °F 32% 30.19 in 10.0 mi WSW 6.9 mph - N/A   Clear
3:35 PM 48.2 °F - 19.4 °F 32% 30.19 in 10.0 mi West 6.9 mph - N/A   Clear
3:55 PM 48.2 °F - 19.4 °F 32% 30.19 in 10.0 mi WSW 4.6 mph - N/A   Mostly Cloudy
4:15 PM 48.2 °F - 19.4 °F 32% 30.18 in 10.0 mi West 4.6 mph - N/A   Mostly Cloudy
4:35 PM 50.0 °F - 19.4 °F 30% 30.18 in 10.0 mi WSW 5.8 mph - N/A   Clear
4:55 PM 46.4 °F 44.3 °F 19.4 °F 34% 30.18 in 10.0 mi West 4.6 mph - N/A   Clear
5:15 PM 46.4 °F 44.3 °F 19.4 °F 34% 30.18 in 10.0 mi West 4.6 mph - N/A   Clear
5:35 PM 46.4 °F - 19.4 °F 34% 30.18 in 10.0 mi Calm Calm - N/A   Clear
5:55 PM 46.4 °F - 19.4 °F 34% 30.18 in 10.0 mi Calm Calm - N/A   Clear
6:15 PM 44.6 °F - 19.4 °F 37% 30.18 in 10.0 mi Calm Calm - N/A   Clear
6:35 PM 42.8 °F 40.1 °F 19.4 °F 39% 30.18 in 10.0 mi West 4.6 mph - N/A   Clear
6:55 PM 42.8 °F 41.1 °F 19.4 °F 39% 30.19 in 10.0 mi West 3.5 mph - N/A   Clear
7:15 PM 42.8 °F - 19.4 °F 39% 30.19 in 10.0 mi Calm Calm - N/A   Clear
7:35 PM 42.8 °F - 19.4 °F 39% 30.20 in 10.0 mi Calm Calm - N/A   Clear
7:55 PM 42.8 °F - 19.4 °F 39% 30.20 in 10.0 mi Calm Calm - N/A   Clear
8:15 PM 42.8 °F - 21.2 °F 42% 30.20 in 10.0 mi Calm Calm - N/A   Clear
8:35 PM 41.0 °F - 19.4 °F 42% 30.20 in 10.0 mi Calm Calm - N/A   Clear
8:55 PM 41.0 °F - 21.2 °F 45% 30.20 in 10.0 mi Calm Calm - N/A   Clear
9:15 PM 39.2 °F - 21.2 °F 49% 30.20 in 10.0 mi Calm Calm - N/A   Clear
9:35 PM 39.2 °F - 23.0 °F 52% 30.21 in 10.0 mi Calm Calm - N/A   Clear
9:55 PM 35.6 °F 32.8 °F 23.0 °F 60% 30.21 in 10.0 mi West 3.5 mph - N/A   Clear
10:15 PM 37.4 °F - 23.0 °F 56% 30.21 in 10.0 mi Calm Calm - N/A   Clear
10:35 PM 37.4 °F - 24.8 °F 60% 30.20 in 10.0 mi Calm Calm - N/A   Clear
10:55 PM 35.6 °F - 23.0 °F 60% 30.20 in 10.0 mi Calm Calm - N/A   Clear
11:15 PM 37.4 °F - 24.8 °F 60% 30.20 in 10.0 mi Calm Calm - N/A   Mostly Cloudy
11:35 PM 39.2 °F - 26.6 °F 61% 30.20 in 10.0 mi Calm Calm - N/A   Mostly Cloudy
11:55 PM 39.2 °F - 26.6 °F 61% 30.19 in 10.0 mi Calm Calm - N/A   Scattered Clouds